ASTRA 1P (SES-24)

Last updated on Sun Jun 21 2026 00:03:09 GMT+0000 (Coordinated Universal Time)

1 60086U 24115A 26170.84211356 .00000115 00000+0 00000+0 0 9994 2 60086 0.0580 357.1167 0000651 25.1211 208.1930 1.00275004 7222
UTC large
Height (km)
Speed (km/s)
/
Latitude / Longitude
Inclination (degrees)
Orbital Period (minutes)
Azimuth
Elevation
Range (km)
Doppler Factor

Next 0 passes for location: London (51.5072 / 0.1276)

No passes found over London.
ASTRA 1P (SES-24)